Regional Weather Roundup
Issued by NWS Kansas City/Pleasant Hill, MO

Home | Current Version | Previous Version | Text Only | Print | Product List | Glossary On
Versions: 1 2 3 4 5 6 7 8 9 10 11 12 13 14 15 16 17 18 19 20 21 22 23 24 25 26 27
000
ASUS43 KEAX 292210
RWREAX

WEATHER ROUNDUP FOR EASTERN KANSAS AND NORTHWEST MISSOURI
NATIONAL WEATHER SERVICE KANSAS CITY/PLEASANT HILL MO
500 PM CDT THU SEP 29 2016

KSZ040-057-103>105-MOZ028-029-037-043-292300-
...KANSAS CITY METROPOLITAN AREA...

CITY           SKY/WX    TMP DP  RH WIND       PRES   REMARKS
K.C. INTL      SUNNY     71  47  42 N10       30.29F
K.C. DOWNTOWN  SUNNY     73  46  38 N8        30.28F
LEES SUMMIT    SUNNY     72  48  42 N10       30.28F
OLATHE - IXD   SUNNY     70  48  45 NW9       30.30F
OLATHE - OJC   SUNNY     71  45  39 N9        30.29F
LAWRENCE       SUNNY     71  49  45 NW8       30.29F

$$

MOZ001>008-011>017-020>025-030>033-038>040-044>046-053-054-292300-
...NORTHERN AND CENTRAL MISSOURI...

CITY           SKY/WX    TMP DP  RH WIND       PRES   REMARKS
ST. JOSEPH     SUNNY     73  46  38 N12       30.30F
MOSBY          CLEAR     72  43  35 N10       30.27F
WHITEMAN AFB   MOSUNNY   73  48  41 N12       30.24S
CLINTON        SUNNY     72  48  43 N12       30.25F
SEDALIA        SUNNY     76  46  34 N14       30.25S
WARSAW         NOT AVBL
CHILLICOTHE      N/A     75  49  39 N8G17     30.28F
KIRKSVILLE     SUNNY     73  49  42 N15       30.24F

$$

MOZ041-047>049-056>058-063>065-088>090-097-292300-
...EASTERN AND SOUTHERN MISSOURI...

CITY           SKY/WX    TMP DP  RH WIND       PRES   REMARKS
ST. LOUIS INTL CLOUDY    68  53  58 N10       30.16S
SPIRIT OF STL  PTSUNNY   68  54  60 N6        30.16S
COLUMBIA       SUNNY     75  49  39 NW16G25   30.20F
JEFFERSON CITY SUNNY     76  50  40 NW10      30.18F
ROLLA          MOSUNNY   72  52  49 N14G20    30.18S
OSAGE BEACH    MOSUNNY   72  53  51 N8        30.22S
SPRINGFIELD    SUNNY     72  44  36 N15       30.22F
BRANSON        SUNNY     72  46  40 N14G20    30.22F
JOPLIN         SUNNY     71  48  43 N12       30.26F
WEST PLAINS    MOSUNNY   72  49  44 N12G22    30.20S

$$

IAZ060-094-KSZ022-034>040-054-083-096-NEZ052-066-093-292300-
...KANSAS...SOUTHEAST NEBRASKA AND IOWA...

CITY           SKY/WX    TMP DP  RH WIND       PRES   REMARKS
TOPEKA         SUNNY     71  49  45 N9        30.30F
MANHATTAN      SUNNY     71  49  45 VRB3      30.31F
EMPORIA        SUNNY     70  48  45 N9        30.30F
CHANUTE        SUNNY     72  46  39 N8        30.28F
WICHITA        MOSUNNY   71  49  45 VRB6      30.31F
OMAHA          MOSUNNY   73  47  39 VRB5      30.33F
LINCOLN        SUNNY     72  48  42 NE7       30.35F
FALLS CITY     SUNNY     71  46  40 VRB5      30.31F
LAMONI         SUNNY     70  50  49 N9        30.30S
DES MOINES     SUNNY     75  46  35 NE8       30.30S

$$





USA.gov is the U.S. government's official web portal to all federal, state and local government web resources and services.